Jonesboro, AR

4:14 PM CST on December 08, 2016 (GMT -0600)
Jonesboro Municipal

Weather History for KJBR - October, 2013

Change the Weather History Date:

Friday, October 4, 2013

  Actual Average Record
Temperature  
Mean Temperature 80 °F 65 °F  
Max Temperature 89 °F 77 °F 98 °F (1897)
Min Temperature 71 °F 53 °F 35 °F (1987)
Degree Days  
Heating Degree Days 0 3  
Month to date heating degree days 0 11  
Since 1 July heating degree days 0 29  
Cooling Degree Days 15 3  
Month to date cooling degree days 47 13  
Year to date cooling degree days 2015 1784  
Growing Degree Days 30 (Base 50)    
Moisture  
Dew Point 70 °F    
Average Humidity 73    
Maximum Humidity 93    
Minimum Humidity 52    
Precipitation  
Precipitation T in 0.14 in 3.75 in (1932)
Month to date precipitation T 0.60  
Year to date precipitation 38.73 34.77  
Snow  
Snow 0.00 in 0.00 in 0.00 in (2002)
Month to date snowfall 0.0 0.0  
Since 1 July snowfall 0.0 0.0  
Since 1 September snowfall 0.0 0.0  
Snow Depth 0.00 in    
Sea Level Pressure  
Sea Level Pressure 29.98 in    
Wind  
Wind Speed 8 mph (South)    
Max Wind Speed 20 mph    
Max Gust Speed 26 mph    
Visibility 10 miles    
Events      
T = Trace of Precipitation, MM = Missing Value Source: NWS Daily Summary

Daily Weather History Graph

Daily Weather History Graph

Search for Another Location

Airport or City:

Trip Planner

Search our weather history database for the weather conditions in past years. The results will help you decide how hot, cold, wet, or windy it might be!

Date:

Astronomy

Oct. 04, 2013 Rise Set
Actual Time 7:00 AM CDT 6:41 PM CDT
Civil Twilight 6:34 AM CDT 7:07 PM CDT
Nautical Twilight 6:05 AM CDT 7:36 PM CDT
Astronomical Twilight 5:35 AM CDT 8:06 PM CDT
Moon 6:35 AM CDT (10/4) 6:25 PM CDT (10/4)
Length of Visible Light 12h 32m
Length of Day
11h 41m
Waning Crescent, 0% of the Moon is Illuminated
Oct 4
Waning Crescent
Oct 4
New
Oct 11
First Quarter
Oct 18
Full
Oct 26
Last Quarter

Hourly Weather History & Observations

Time (CDT) Temp. Heat Index Dew Point Humidity Pressure Visibility Wind Dir Wind Speed Gust Speed Precip Events Conditions
12:53 AM 75.0 °F - 70.0 °F 84% 29.97 in 10.0 mi South 10.4 mph - N/A   Clear
1:53 AM 73.9 °F - 69.1 °F 85% 29.97 in 10.0 mi South 6.9 mph - N/A   Clear
2:53 AM 73.0 °F - 69.1 °F 87% 29.97 in 10.0 mi South 6.9 mph - N/A   Clear
3:53 AM 73.0 °F - 69.1 °F 87% 29.97 in 10.0 mi South 4.6 mph - N/A   Clear
4:53 AM 72.0 °F - 68.0 °F 87% 29.97 in 9.0 mi SSE 3.5 mph - N/A   Partly Cloudy
5:32 AM 71.6 °F - 68.0 °F 88% 29.99 in 8.0 mi South 3.5 mph - N/A   Mostly Cloudy
5:42 AM 71.6 °F - 68.0 °F 88% 29.99 in 8.0 mi South 4.6 mph - N/A   Mostly Cloudy
5:50 AM 71.6 °F - 68.0 °F 88% 29.99 in 8.0 mi South 4.6 mph - N/A   Mostly Cloudy
5:53 AM 71.1 °F - 68.0 °F 90% 29.98 in 8.0 mi South 4.6 mph - N/A   Mostly Cloudy
6:53 AM 72.0 °F - 69.1 °F 91% 29.99 in 7.0 mi South 5.8 mph - N/A   Overcast
7:53 AM 73.0 °F - 70.0 °F 90% 30.00 in 6.0 mi South 6.9 mph - N/A   Overcast
8:53 AM 75.0 °F - 71.1 °F 87% 30.02 in 10.0 mi South 6.9 mph - N/A   Mostly Cloudy
9:12 AM 75.2 °F - 71.6 °F 89% 30.03 in 10.0 mi South 6.9 mph - N/A   Mostly Cloudy
9:53 AM 79.0 °F - 71.1 °F 77% 30.02 in 10.0 mi South 5.8 mph - N/A   Mostly Cloudy
10:36 AM 82.4 °F 87.2 °F 71.6 °F 70% 30.03 in 10.0 mi South 9.2 mph - N/A   Mostly Cloudy
10:53 AM 82.9 °F 88.0 °F 72.0 °F 69% 30.02 in 10.0 mi South 6.9 mph - N/A   Overcast
11:33 AM 84.2 °F 90.9 °F 73.4 °F 70% 30.02 in 10.0 mi SSW 8.1 mph - N/A   Mostly Cloudy
11:53 AM 86.0 °F 92.2 °F 72.0 °F 63% 30.01 in 10.0 mi SSW 8.1 mph - N/A   Mostly Cloudy
12:21 PM 87.8 °F 93.8 °F 71.6 °F 58% 30.01 in 10.0 mi South 6.9 mph - N/A   Mostly Cloudy
12:44 PM 87.8 °F 93.8 °F 71.6 °F 58% 30.00 in 10.0 mi SSE 15.0 mph 20.7 mph N/A   Mostly Cloudy
12:53 PM 88.0 °F 94.7 °F 72.0 °F 59% 29.99 in 10.0 mi South 12.7 mph - N/A   Mostly Cloudy
1:53 PM 88.0 °F 93.8 °F 71.1 °F 57% 29.96 in 10.0 mi South 17.3 mph - N/A   Scattered Clouds
2:53 PM 89.1 °F 94.1 °F 70.0 °F 53% 29.96 in 10.0 mi South 16.1 mph 24.2 mph N/A   Partly Cloudy
3:53 PM 89.1 °F 94.1 °F 70.0 °F 53% 29.96 in 10.0 mi South 17.3 mph 26.5 mph N/A   Partly Cloudy
4:53 PM 86.0 °F 90.7 °F 70.0 °F 59% 29.94 in 10.0 mi South 13.8 mph - N/A   Partly Cloudy
5:53 PM 84.9 °F 89.4 °F 70.0 °F 61% 29.94 in 10.0 mi South 9.2 mph - N/A   Clear
6:23 PM 82.4 °F 86.3 °F 69.8 °F 66% 29.95 in 10.0 mi South 9.2 mph - N/A   Partly Cloudy
6:53 PM 82.0 °F 85.9 °F 70.0 °F 67% 29.94 in 10.0 mi South 6.9 mph - N/A   Clear
7:53 PM 79.0 °F - 71.1 °F 77% 29.95 in 10.0 mi South 4.6 mph - N/A   Clear
8:53 PM 78.1 °F - 71.1 °F 79% 29.97 in 10.0 mi South 5.8 mph - N/A   Clear
9:53 PM 78.1 °F - 71.1 °F 79% 29.98 in 10.0 mi SSE 6.9 mph - N/A   Mostly Cloudy
10:53 PM 78.1 °F - 72.0 °F 81% 29.99 in 10.0 mi Calm Calm - N/A   Overcast
11:53 PM 78.1 °F - 72.0 °F 81% 29.98 in 10.0 mi SSE 6.9 mph - N/A   Mostly Cloudy